[[{"header":{"parameterUnit":"m.s-1","parameterCategory":2,"la1":30.2991,"la2":30.254,"lo1":-89.0895,"lo2":-89.0444,"dx":0.0017,"dy":0.0017,"nx":28,"ny":28,"refTime":"2022-12-15T09:00:00:Z","depth":"0","parameterNumber":2,"parameterNumberName":"U-component_of_CURRENTS"},"data":[0,0,0,0,0,0,0,0,0,0,0,0,0,0,0,0,0,0,0,0,0,0,0,0,0,0,0,0,0,0,0,0,0,0,0,0,0,0,0,0,0,0,0,0,0,0,0,0,0,0,0,0,0,0,0,0,0,0,0.2231,0.2232,0,0.2316,0.2316,0.2317,0.2321,0.2321,0.2321,0.2321,0.2333,0.2334,0.2334,0,0,0,0,0,0,0,0,0,0,0,0,0,0.2089,0.2091,0.2231,0.2232,0.2234,0.2316,0.2316,0.2317,0.2321,0.2321,0.2321,0.232,0.2333,0.2334,0.2335,0,0,0,0,0,0,0,0,0,0,0,0,0,0.2152,0.2091,0.223,0.2252,0.2256,0.2316,0.2316,0.2317,0.2321,0.2321,0.2321,0.232,0.2333,0.2334,0.2335,0.2348,0,0,0.2337,0.2338,0,0,0,0,0,0,0,0,0.2149,0.2157,0.2247,0.2251,0.2255,0.2315,0.2272,0.2326,0.2322,0.2288,0.2321,0.232,0.2326,0.2327,0.2334,0.2348,0.2349,0.2337,0.2338,0.2338,0.2339,0,0,0,0,0,0,0,0.2144,0.2153,0.2256,0.2249,0.2254,0.2264,0.2272,0.2282,0.2301,0.2291,0.2294,0.2316,0.2326,0.2333,0.2334,0.2349,0.2337,0.2338,0.2339,0.2339,0.2397,0.2398,0,0,0,0,0,0,0.215,0.2149,0.2254,0.226,0.2209,0.2268,0.2276,0.2289,0.2302,0.2307,0.2316,0.2316,0.2332,0.2333,0.2335,0.2367,0.2338,0.2339,0.234,0.2396,0.2397,0.2399,0,0,0,0,0,0,0.2146,0.2158,0.2251,0.2213,0.2226,0.2271,0.2286,0.2291,0.2303,0.2324,0.2325,0.2324,0.2332,0.2333,0.2357,0.2367,0.2339,0.234,0.2395,0.2397,0.2398,0.2421,0,0,0,0,0,0,0.2141,0.2155,0.2165,0.2213,0.2229,0.2287,0.2288,0.2294,0.2322,0.2322,0.2331,0.2332,0.2331,0.2356,0.2358,0.2367,0.2341,0.2394,0.2396,0.2397,0.2419,0.2423,0.2427,0,0,0,0,0,0.2136,0.2157,0.2164,0.2178,0.2241,0.2289,0.2296,0.2322,0.2322,0.2329,0.2344,0.2331,0.2369,0.2358,0.236,0.237,0.2393,0.2395,0.2397,0.2417,0.2422,0.2427,0,0,0,0,0,0,0.21,0.2162,0.217,0.2208,0.2245,0.2292,0.231,0.2326,0.2343,0.2344,0.2348,0.235,0.2375,0.2373,0.236,0.2393,0.2378,0.238,0.2392,0.2397,0.2401,0.2407,0.2342,0,0,0,0,0,0.2098,0.2127,0.2181,0.2209,0.2228,0.2266,0.2289,0.231,0.2338,0.2345,0.2352,0.2365,0.2387,0.2392,0.2406,0.2424,0.2424,0.2431,0.2435,0.2438,0.2446,0.2454,0.2459,0.2406,0.2406,0.2406,0,0,0.2094,0.2132,0.2149,0.2204,0.2231,0.2263,0.2276,0.2317,0.2342,0.2344,0.2366,0.238,0.2397,0.2421,0.243,0.2418,0.2456,0.2441,0.2444,0.245,0.2457,0.2462,0.2467,0.2408,0.2407,0.2407,0,0,0.2099,0.213,0.2152,0.2187,0.2241,0.2267,0.228,0.2326,0.234,0.2371,0.2385,0.2411,0.2426,0.2448,0.2461,0.2496,0.248,0.2493,0.2513,0.252,0.2525,0.2528,0.2541,0.2545,0.249,0.249,0.249,0,0.2091,0.2129,0.2165,0.2197,0.2231,0.2267,0.2297,0.2323,0.2369,0.2388,0.2378,0.2429,0.2442,0.2487,0.2504,0.2504,0.2505,0.2491,0.2524,0.2528,0.2531,0.2543,0.2548,0.2491,0.2491,0.2491,0.2491,0,0.2114,0.2146,0.2165,0.2213,0.2246,0.2285,0.233,0.2357,0.2375,0.2399,0.2441,0.2462,0.2491,0.2501,0.2515,0.2553,0.2546,0.2531,0.2509,0.2538,0.2549,0.2553,0.2493,0.2493,0.2492,0.2492,0,0,0.2099,0.2167,0.2175,0.2196,0.2263,0.2292,0.2337,0.2389,0.2416,0.2444,0.2475,0.2523,0.2529,0.2546,0.2563,0.2577,0.2609,0.2566,0.2566,0.2574,0.2628,0.2647,0.2654,0.2593,0.2594,0.2594,0.2628,0,0.2108,0.2158,0.2195,0.2241,0.2271,0.2323,0.2356,0.2406,0.2438,0.2472,0.2508,0.2539,0.2546,0.2562,0.258,0.2609,0.2621,0.2602,0.2604,0.2605,0.2614,0.266,0.2671,0.2704,0.2632,0.2633,0.2633,0,0.2125,0.2156,0.2198,0.2256,0.2273,0.23,0.2365,0.2405,0.2468,0.249,0.253,0.2552,0.2607,0.259,0.2643,0.2627,0.2634,0.2644,0.2645,0.2658,0.2633,0.2664,0.2715,0.2718,0.264,0.264,0.2639,0,0.2099,0.2164,0.2193,0.2218,0.2281,0.2306,0.2344,0.2407,0.2449,0.2506,0.2536,0.258,0.2618,0.2628,0.2674,0.2652,0.2721,0.2683,0.2705,0.2705,0.2716,0.2716,0.2767,0.2706,0.2705,0.2705,0.2705,0,0.2106,0.213,0.218,0.2196,0.2228,0.2283,0.2324,0.237,0.2441,0.2483,0.254,0.2586,0.2629,0.2679,0.2685,0.2731,0.2728,0.2727,0.2722,0.2725,0.2727,0.2729,0.2702,0.2707,0.2706,0.2706,0.2706,0,0.2075,0.2115,0.2142,0.2196,0.2215,0.2237,0.2316,0.2343,0.2422,0.2483,0.2507,0.261,0.268,0.2727,0.2766,0.2763,0.274,0.2795,0.2806,0.2803,0.2804,0.2777,0.2653,0.2561,0.281,0.2811,0.2812,0,0.2063,0.2072,0.2121,0.213,0.2152,0.2197,0.2223,0.2316,0.2357,0.2493,0.2519,0.2632,0.2708,0.2806,0.2831,0.2862,0.2773,0.2865,0.2824,0.2829,0.2794,0.2634,0.2551,0.2846,0.2847,0.2847,0.2848,0,0.2019,0.2032,0.2047,0.207,0.2093,0.213,0.2185,0.2222,0.233,0.2404,0.2511,0.2597,0.2745,0.2821,0.2895,0.2902,0.278,0.2879,0.2881,0.2834,0.2665,0.2567,0.28,0.2854,0.2854,0.2853,0.2853,0.2853,0.1968,0.1964,0.1979,0.1996,0.2021,0.2046,0.2054,0.2135,0.2209,0.2319,0.2442,0.2575,0.2792,0.292,0.2895,0.2941,0.2809,0.2922,0.2891,0.2729,0.263,0.2885,0.2934,0.2934,0.2934,0.2933,0.2933,0,0.1888,0.1895,0.1904,0.1918,0.1911,0.1959,0.2007,0.2015,0.2071,0.2256,0.2364,0.2629,0.2776,0.2909,0.3064,0.3011,0.2805,0.2949,0.2752,0.2668,0.2932,0.2931,0.2987,0.2987,0.2987,0.2987,0.2987,0.2987,0.1845,0.1821,0.1831,0.1799,0.1808,0.1786,0.1793,0.1837,0.1959,0.2142,0.233,0.2498,0.287,0.3148,0.3204,0.3107,0.2854,0.2757,0.2645,0.292,0.2915,0.291,0.2906,0.2955,0.2955,0.2312,0.2308,0.2305]},{"header":{"parameterUnit":"m.s-1","parameterCategory":2,"la1":30.2991,"la2":30.254,"lo1":-89.0895,"lo2":-89.0444,"dx":0.0017,"dy":0.0017,"nx":28,"ny":28,"refTime":"2022-12-15T09:00:00:Z","depth":"0","parameterNumber":3,"parameterNumberName":"V-component_of_CURRENTS"},"data":[0,0,0,0,0,0,0,0,0,0,0,0,0,0,0,0,0,0,0,0,0,0,0,0,0,0,0,0,0,0,0,0,0,0,0,0,0,0,0,0,0,0,0,0,0,0,0,0,0,0,0,0,0,0,0,0,0,0,-0.0334,-0.0336,0,-0.0393,-0.0393,-0.0393,-0.0457,-0.0459,-0.046,-0.0462,-0.0524,-0.0524,-0.0524,0,0,0,0,0,0,0,0,0,0,0,0,0,-0.0265,-0.0266,-0.0334,-0.0336,-0.0337,-0.0393,-0.0393,-0.0393,-0.0457,-0.0459,-0.046,-0.0462,-0.0524,-0.0524,-0.0525,0,0,0,0,0,0,0,0,0,0,0,0,0,-0.03,-0.0266,-0.0334,-0.0381,-0.0386,-0.0393,-0.0393,-0.0393,-0.0456,-0.0459,-0.0461,-0.0463,-0.0524,-0.0524,-0.0525,-0.048,0,0,-0.0526,-0.0526,0,0,0,0,0,0,0,0,-0.0298,-0.0302,-0.0372,-0.0377,-0.0383,-0.0426,-0.0392,-0.0425,-0.0456,-0.0422,-0.0462,-0.0464,-0.0494,-0.0497,-0.0493,-0.0483,-0.0486,-0.0526,-0.0526,-0.0526,-0.0526,0,0,0,0,0,0,0,-0.0295,-0.03,-0.0351,-0.0374,-0.0381,-0.0395,-0.0401,-0.0398,-0.0439,-0.0425,-0.0432,-0.0448,-0.0497,-0.0493,-0.0495,-0.0487,-0.0526,-0.0526,-0.0526,-0.0526,-0.0533,-0.0533,0,0,0,0,0,0,-0.03,-0.0297,-0.0349,-0.0353,-0.0353,-0.0395,-0.0402,-0.0404,-0.044,-0.0449,-0.0446,-0.0451,-0.0491,-0.0495,-0.0498,-0.0492,-0.0526,-0.0526,-0.0526,-0.0533,-0.0533,-0.0533,0,0,0,0,0,0,-0.0298,-0.0303,-0.0347,-0.0333,-0.034,-0.0394,-0.0396,-0.0404,-0.0411,-0.0457,-0.0466,-0.0447,-0.0493,-0.0497,-0.051,-0.0494,-0.0526,-0.0527,-0.0533,-0.0533,-0.0533,-0.0452,0,0,0,0,0,0,-0.0295,-0.0302,-0.0303,-0.0332,-0.0342,-0.0342,-0.0395,-0.0404,-0.0421,-0.0427,-0.0459,-0.0467,-0.0495,-0.0509,-0.051,-0.0495,-0.0527,-0.0533,-0.0533,-0.0533,-0.0455,-0.0449,-0.0445,0,0,0,0,0,-0.0292,-0.0278,-0.0302,-0.0309,-0.0342,-0.0341,-0.0344,-0.0387,-0.0418,-0.0404,-0.0445,-0.0467,-0.0511,-0.0509,-0.051,-0.0494,-0.0533,-0.0533,-0.0533,-0.0457,-0.045,-0.0445,0,0,0,0,0,0,-0.0245,-0.0285,-0.0312,-0.031,-0.0325,-0.0355,-0.0352,-0.0379,-0.0395,-0.0406,-0.0454,-0.0463,-0.0472,-0.0494,-0.0491,-0.0501,-0.0529,-0.0529,-0.0471,-0.0465,-0.046,-0.0439,-0.0527,0,0,0,0,0,-0.0236,-0.0235,-0.0274,-0.0269,-0.0277,-0.0312,-0.032,-0.0341,-0.0366,-0.0376,-0.0407,-0.0442,-0.0467,-0.0476,-0.0497,-0.0485,-0.051,-0.0483,-0.0478,-0.0473,-0.0459,-0.049,-0.0486,-0.0532,-0.0532,-0.0532,0,0,-0.0218,-0.0239,-0.0241,-0.0259,-0.0276,-0.0269,-0.032,-0.0317,-0.0314,-0.0377,-0.038,-0.0419,-0.0462,-0.0465,-0.047,-0.0482,-0.0474,-0.0473,-0.0468,-0.0457,-0.0489,-0.0484,-0.048,-0.0532,-0.0532,-0.0532,0,0,-0.0169,-0.0196,-0.018,-0.0189,-0.0212,-0.0228,-0.0226,-0.0252,-0.0268,-0.0271,-0.0329,-0.0359,-0.0385,-0.0417,-0.0437,-0.0411,-0.0447,-0.0425,-0.0373,-0.0403,-0.0398,-0.0395,-0.0417,-0.0416,-0.0419,-0.0419,-0.0419,0,-0.0147,-0.0137,-0.0171,-0.0158,-0.0163,-0.0208,-0.0184,-0.0197,-0.0224,-0.0231,-0.0265,-0.0324,-0.0361,-0.0375,-0.0378,-0.0396,-0.042,-0.0388,-0.0394,-0.0391,-0.0389,-0.0412,-0.0412,-0.0415,-0.0416,-0.0416,-0.0416,0,-0.0096,-0.0086,-0.0072,-0.0076,-0.0077,-0.0058,-0.0091,-0.0091,-0.0123,-0.0147,-0.017,-0.0228,-0.0264,-0.0286,-0.0324,-0.0329,-0.0352,-0.0383,-0.0402,-0.0379,-0.0406,-0.0407,-0.041,-0.0411,-0.0412,-0.0413,0,0,-0.0044,-0.0037,-0.0032,-0.0021,-0.0032,-0.0023,-0.0013,-0.0016,-0.0011,-0.0052,-0.0053,-0.0111,-0.0152,-0.0178,-0.0233,-0.0262,-0.0274,-0.031,-0.0314,-0.0318,-0.0334,-0.0357,-0.0361,-0.0307,-0.0307,-0.0307,-0.0356,0,0.0008,0.0055,0.0042,0.0089,0.0108,0.0077,0.0092,0.0082,0.0056,0.0045,-0.0021,-0.0044,-0.0108,-0.0128,-0.0166,-0.0252,-0.0275,-0.0257,-0.0367,-0.037,-0.0382,-0.0363,-0.0361,-0.0405,-0.0358,-0.0358,-0.0358,0,0.0059,0.0084,0.0138,0.0167,0.0173,0.019,0.02,0.021,0.0182,0.0158,0.012,0.0066,0.0015,-0.0047,-0.0158,-0.0145,-0.0223,-0.0291,-0.0295,-0.0343,-0.0396,-0.0424,-0.041,-0.0582,-0.0361,-0.0361,-0.0361,0,0.0106,0.0152,0.0199,0.0206,0.0228,0.0244,0.0254,0.0243,0.0262,0.0227,0.0228,0.0153,0.0115,0.0011,-0.0129,-0.0143,-0.0254,-0.0294,-0.0382,-0.0385,-0.0417,-0.0423,-0.057,-0.0357,-0.0357,-0.0356,-0.0356,0,0.0162,0.02,0.0223,0.0244,0.0303,0.0295,0.0347,0.0337,0.0342,0.0372,0.029,0.0293,0.0126,0.0042,-0.009,-0.0237,-0.0224,-0.0362,-0.0396,-0.039,-0.0393,-0.0572,-0.0666,-0.0358,-0.0358,-0.0357,-0.0357,0,0.0207,0.0222,0.0277,0.0311,0.0325,0.0364,0.0412,0.0448,0.0437,0.0472,0.0467,0.0396,0.0281,0.0117,-0.0059,-0.0183,-0.0429,-0.038,-0.0358,-0.0389,-0.0632,-0.0719,-0.0897,-0.0993,-0.048,-0.0481,-0.0481,0,0.0234,0.0265,0.0323,0.0359,0.0375,0.043,0.0472,0.0488,0.0533,0.0541,0.0568,0.0478,0.0434,0.0171,-0.0074,-0.0297,-0.0462,-0.0445,-0.0473,-0.0636,-0.076,-0.083,-0.0903,-0.0486,-0.0486,-0.0487,-0.0487,0,0.028,0.0297,0.034,0.0418,0.0469,0.0541,0.0602,0.0659,0.0684,0.0719,0.0752,0.0724,0.0466,0.0246,-0.0075,-0.0249,-0.0579,-0.0463,-0.0643,-0.078,-0.0854,-0.0965,-0.0462,-0.0492,-0.0492,-0.0491,-0.0491,-0.0491,0.0309,0.0351,0.0406,0.0484,0.0551,0.0648,0.0729,0.0801,0.0894,0.0972,0.0915,0.0922,0.0569,0.0135,-0.014,-0.0624,-0.0634,-0.0761,-0.0853,-0.0907,-0.1007,-0.0508,-0.0574,-0.0574,-0.0574,-0.0574,-0.0574,0,0.0348,0.0395,0.0467,0.0568,0.066,0.0685,0.0816,0.091,0.1042,0.1114,0.115,0.1015,0.0566,0.0108,-0.0539,-0.0919,-0.1076,-0.1142,-0.1249,-0.1305,-0.0867,-0.0876,-0.0997,-0.0997,-0.0997,-0.0996,-0.0996,-0.0996,0.0366,0.0443,0.0486,0.0643,0.0721,0.0867,0.0958,0.1091,0.1195,0.1331,0.1376,0.1359,0.1044,-0.0209,-0.1086,-0.1312,-0.1579,-0.1649,-0.1796,-0.1505,-0.1477,-0.145,-0.1481,-0.1727,-0.1728,-0.2193,-0.2198,-0.2202]}],[{"header":{"parameterUnit":"m.s-1","parameterCategory":2,"la1":30.2991,"la2":30.254,"lo1":-89.0895,"lo2":-89.0444,"dx":0.0017,"dy":0.0017,"nx":28,"ny":28,"refTime":"2022-12-15T09:00:00:Z","depth":"2","parameterNumber":2,"parameterNumberName":"U-component_of_CURRENTS"},"data":[0,0,0,0,0,0,0,0,0,0,0,0,0,0,0,0,0,0,0,0,0,0,0,0,0,0,0,0,0,0,0,0,0,0,0,0,0,0,0,0,0,0,0,0,0,0,0,0,0,0,0,0,0,0,0,0,0,0,0.2117,0.2119,0,0.2205,0.2205,0.2205,0.2214,0.2214,0.2214,0.2214,0.2228,0.2228,0.2228,0,0,0,0,0,0,0,0,0,0,0,0,0,0.1956,0.1958,0.2117,0.2119,0.2121,0.2205,0.2205,0.2205,0.2214,0.2214,0.2214,0.2214,0.2228,0.2228,0.2228,0,0,0,0,0,0,0,0,0,0,0,0,0,0.2022,0.1958,0.2117,0.2145,0.2149,0.2205,0.2205,0.2205,0.2213,0.2214,0.2214,0.2214,0.2228,0.2228,0.2228,0.2225,0,0,0.2229,0.2229,0,0,0,0,0,0,0,0,0.2018,0.2026,0.2138,0.2143,0.2148,0.2209,0.2154,0.2212,0.2213,0.2176,0.2214,0.2214,0.2222,0.2223,0.2223,0.2225,0.2226,0.2229,0.2229,0.223,0.223,0,0,0,0,0,0,0,0.2013,0.2022,0.214,0.2141,0.2147,0.2153,0.2161,0.2164,0.2186,0.218,0.2183,0.2212,0.2223,0.2223,0.2223,0.2226,0.2229,0.223,0.223,0.223,0.2275,0.2276,0,0,0,0,0,0,0.2027,0.2018,0.2137,0.2144,0.2096,0.2157,0.2165,0.2179,0.2188,0.2194,0.2212,0.2212,0.2222,0.2223,0.2224,0.2259,0.223,0.223,0.223,0.2274,0.2275,0.2277,0,0,0,0,0,0,0.2022,0.2035,0.2134,0.2093,0.2108,0.216,0.2175,0.2181,0.2192,0.2215,0.2217,0.222,0.2222,0.2224,0.2246,0.2258,0.223,0.223,0.2273,0.2275,0.2276,0.2305,0,0,0,0,0,0,0.2017,0.2033,0.2045,0.2094,0.2111,0.2168,0.2177,0.2183,0.2215,0.2216,0.2223,0.2224,0.2223,0.2245,0.2246,0.2258,0.2231,0.2272,0.2274,0.2276,0.2303,0.2307,0.2311,0,0,0,0,0,0.201,0.2034,0.2044,0.206,0.2125,0.217,0.2177,0.2208,0.2215,0.2217,0.2235,0.2224,0.2258,0.2247,0.2247,0.226,0.2271,0.2273,0.2275,0.2301,0.2306,0.2311,0,0,0,0,0,0,0.1973,0.2039,0.2051,0.2093,0.213,0.2176,0.2195,0.2213,0.2227,0.2233,0.2237,0.2239,0.2265,0.226,0.2247,0.228,0.2262,0.2265,0.2282,0.2287,0.2291,0.2295,0.2231,0,0,0,0,0,0.1971,0.2001,0.2059,0.209,0.211,0.2149,0.2173,0.2196,0.2225,0.2231,0.2238,0.2252,0.2273,0.2278,0.229,0.2304,0.2301,0.2313,0.2317,0.2321,0.2326,0.233,0.2335,0.2284,0.2284,0.2284,0,0,0.197,0.201,0.2028,0.2084,0.2112,0.2142,0.216,0.2203,0.2228,0.223,0.2252,0.2267,0.2282,0.2305,0.2314,0.2302,0.2337,0.2324,0.2327,0.233,0.2333,0.2338,0.2342,0.2286,0.2285,0.2285,0,0,0.1976,0.201,0.2032,0.2065,0.2123,0.2148,0.2162,0.2208,0.2225,0.2254,0.2271,0.2298,0.231,0.2332,0.2344,0.2378,0.2362,0.2378,0.2398,0.2403,0.2407,0.241,0.2422,0.2426,0.2376,0.2376,0.2376,0,0.197,0.2009,0.2044,0.2074,0.2111,0.2149,0.2179,0.2202,0.2249,0.2267,0.2263,0.231,0.2325,0.2367,0.2388,0.2387,0.2387,0.2376,0.2407,0.2411,0.2414,0.2425,0.2429,0.2378,0.2378,0.2378,0.2377,0,0.1993,0.2026,0.2044,0.209,0.2122,0.2161,0.2208,0.2234,0.2256,0.2279,0.232,0.2342,0.2369,0.2383,0.2399,0.2436,0.243,0.2414,0.2391,0.242,0.2431,0.2435,0.238,0.238,0.2379,0.2379,0,0,0.198,0.2046,0.2054,0.2074,0.2141,0.2167,0.2213,0.2262,0.2289,0.2318,0.2348,0.2397,0.2405,0.2421,0.2441,0.2456,0.249,0.2449,0.2449,0.2456,0.2505,0.2518,0.2523,0.2474,0.2475,0.2475,0.2507,0,0.1988,0.2036,0.2073,0.2115,0.2145,0.2197,0.2228,0.2276,0.231,0.2341,0.2378,0.2408,0.242,0.2439,0.2456,0.2489,0.25,0.2483,0.248,0.2481,0.2484,0.2528,0.2367,0.2383,0.251,0.2511,0.2511,0,0.2004,0.2034,0.2075,0.2129,0.2145,0.2171,0.2234,0.2273,0.2332,0.2356,0.2395,0.2418,0.2474,0.246,0.2513,0.25,0.2508,0.2519,0.252,0.2524,0.25,0.2374,0.2385,0.2518,0.2517,0.2517,0.2516,0,0.1978,0.2041,0.2069,0.2093,0.2153,0.2178,0.2214,0.2275,0.2316,0.2372,0.2404,0.2443,0.2485,0.2493,0.2543,0.2523,0.2588,0.2553,0.2566,0.2567,0.2427,0.2415,0.2569,0.2569,0.2569,0.2569,0.2569,0,0.1983,0.2006,0.2057,0.2072,0.2102,0.2156,0.2195,0.224,0.2309,0.235,0.2408,0.2451,0.2496,0.2544,0.2552,0.2593,0.2592,0.2586,0.2581,0.2436,0.2425,0.2533,0.2529,0.257,0.257,0.257,0.257,0,0.1951,0.1991,0.2017,0.207,0.209,0.211,0.2189,0.2214,0.2294,0.2354,0.2379,0.2478,0.2546,0.2592,0.2629,0.2621,0.2641,0.2647,0.249,0.2467,0.2608,0.2605,0.2651,0.2652,0.2653,0.2653,0.2654,0,0.1937,0.1947,0.1996,0.2006,0.2028,0.2073,0.21,0.2191,0.2231,0.2365,0.2389,0.25,0.2567,0.2656,0.2655,0.2676,0.2684,0.2527,0.2462,0.2629,0.2619,0.2614,0.261,0.2283,0.228,0.2278,0.2276,0,0.1891,0.1906,0.192,0.1946,0.1972,0.2007,0.2064,0.2097,0.2204,0.2276,0.2377,0.2454,0.2572,0.2547,0.2604,0.2579,0.2512,0.2487,0.2688,0.2305,0.2289,0.2277,0.2283,0.2257,0.2259,0.2261,0.2262,0.2262,0.184,0.1836,0.1853,0.1873,0.1901,0.1925,0.1933,0.2006,0.2074,0.2159,0.2281,0.2338,0.2409,0.2423,0.2369,0.2324,0.248,0.2363,0.2365,0.2371,0.2341,0.2329,0.2299,0.2301,0.2303,0.2304,0.2306,0,0.1759,0.177,0.178,0.1796,0.1789,0.1844,0.1888,0.1877,0.1921,0.2044,0.2127,0.2013,0.2062,0.2109,0.204,0.2069,0.1995,0.197,0.1855,0.188,0.19,0.184,0.1668,0.1665,0.1662,0.166,0,0,0.1718,0.1695,0.1704,0.1675,0.169,0.1665,0.1672,0.1679,0.1742,0.1757,0.1792,0.1978,0.2092,0.1841,0.1842,0.1745,0.178,0.1679,0.2209,0.2101,0.2117,0.2168,0.2111,0,0,0,0,0]},{"header":{"parameterUnit":"m.s-1","parameterCategory":2,"la1":30.2991,"la2":30.254,"lo1":-89.0895,"lo2":-89.0444,"dx":0.0017,"dy":0.0017,"nx":28,"ny":28,"refTime":"2022-12-15T09:00:00:Z","depth":"2","parameterNumber":3,"parameterNumberName":"V-component_of_CURRENTS"},"data":[0,0,0,0,0,0,0,0,0,0,0,0,0,0,0,0,0,0,0,0,0,0,0,0,0,0,0,0,0,0,0,0,0,0,0,0,0,0,0,0,0,0,0,0,0,0,0,0,0,0,0,0,0,0,0,0,0,0,-0.0192,-0.0193,0,-0.0246,-0.0246,-0.0246,-0.0313,-0.0314,-0.0316,-0.0318,-0.0386,-0.0386,-0.0386,0,0,0,0,0,0,0,0,0,0,0,0,0,-0.0116,-0.0116,-0.0192,-0.0194,-0.0195,-0.0246,-0.0246,-0.0246,-0.0312,-0.0315,-0.0317,-0.0319,-0.0386,-0.0386,-0.0386,0,0,0,0,0,0,0,0,0,0,0,0,0,-0.0149,-0.0116,-0.0192,-0.0241,-0.0246,-0.0246,-0.0246,-0.0246,-0.0312,-0.0315,-0.0317,-0.032,-0.0386,-0.0386,-0.0386,-0.0331,0,0,-0.0386,-0.0386,0,0,0,0,0,0,0,0,-0.0147,-0.015,-0.0232,-0.0238,-0.0244,-0.0283,-0.0245,-0.0278,-0.0311,-0.0277,-0.0318,-0.0321,-0.0357,-0.0359,-0.035,-0.0334,-0.0337,-0.0386,-0.0386,-0.0387,-0.0387,0,0,0,0,0,0,0,-0.0144,-0.0148,-0.0204,-0.0234,-0.0241,-0.0251,-0.0257,-0.025,-0.0294,-0.0281,-0.0288,-0.0307,-0.0359,-0.035,-0.0353,-0.0338,-0.0386,-0.0387,-0.0387,-0.0387,-0.039,-0.039,0,0,0,0,0,0,-0.0154,-0.0146,-0.0203,-0.0207,-0.0211,-0.025,-0.0258,-0.0261,-0.0294,-0.0304,-0.0305,-0.031,-0.0348,-0.0352,-0.0355,-0.0356,-0.0387,-0.0387,-0.0387,-0.039,-0.039,-0.039,0,0,0,0,0,0,-0.0152,-0.0158,-0.0201,-0.0186,-0.0194,-0.025,-0.0252,-0.026,-0.0268,-0.0314,-0.0323,-0.0307,-0.0351,-0.0355,-0.037,-0.0358,-0.0387,-0.0387,-0.039,-0.039,-0.039,-0.0317,0,0,0,0,0,0,-0.0149,-0.0156,-0.016,-0.0186,-0.0195,-0.0194,-0.025,-0.026,-0.0279,-0.0287,-0.0318,-0.0327,-0.0353,-0.037,-0.037,-0.0358,-0.0387,-0.039,-0.039,-0.039,-0.0319,-0.0315,-0.0311,0,0,0,0,0,-0.0145,-0.0133,-0.0159,-0.0167,-0.0198,-0.0194,-0.0196,-0.0241,-0.0277,-0.026,-0.0304,-0.0327,-0.0372,-0.0369,-0.037,-0.0358,-0.039,-0.039,-0.039,-0.0322,-0.0316,-0.0311,0,0,0,0,0,0,-0.0101,-0.0141,-0.0169,-0.0171,-0.0183,-0.0209,-0.0208,-0.0235,-0.0251,-0.0266,-0.0313,-0.0323,-0.0335,-0.0355,-0.0351,-0.0364,-0.0389,-0.0389,-0.0336,-0.0331,-0.0327,-0.0307,-0.0387,0,0,0,0,0,-0.0094,-0.0093,-0.0131,-0.0128,-0.0137,-0.017,-0.0178,-0.02,-0.0224,-0.0235,-0.0267,-0.0304,-0.0328,-0.0339,-0.0358,-0.0346,-0.0371,-0.0346,-0.0342,-0.0338,-0.0325,-0.0357,-0.0353,-0.039,-0.039,-0.039,0,0,-0.0079,-0.01,-0.0102,-0.0119,-0.0135,-0.0128,-0.0178,-0.0178,-0.0175,-0.0236,-0.0244,-0.0282,-0.0324,-0.0328,-0.0335,-0.0345,-0.0341,-0.0338,-0.0333,-0.0323,-0.0356,-0.0353,-0.0349,-0.039,-0.039,-0.039,0,0,-0.0035,-0.0062,-0.0047,-0.0054,-0.0078,-0.0092,-0.0092,-0.0117,-0.0134,-0.0138,-0.0197,-0.0229,-0.0254,-0.0285,-0.0305,-0.0282,-0.0318,-0.0296,-0.0249,-0.028,-0.0277,-0.0274,-0.0298,-0.0298,-0.0291,-0.0291,-0.0291,0,-0.0018,-0.0007,-0.0039,-0.0026,-0.0032,-0.0075,-0.0053,-0.0064,-0.0092,-0.01,-0.0137,-0.0196,-0.0233,-0.0247,-0.0252,-0.0268,-0.0293,-0.0262,-0.0272,-0.027,-0.0269,-0.0294,-0.0295,-0.0287,-0.0288,-0.0288,-0.0288,0,0.0031,0.0039,0.0052,0.0048,0.0048,0.0066,0.0035,0.0033,-0.0002,-0.0025,-0.0052,-0.0107,-0.0145,-0.0167,-0.0202,-0.0211,-0.0234,-0.0262,-0.0279,-0.026,-0.0289,-0.0291,-0.0282,-0.0283,-0.0284,-0.0285,0,0,0.0075,0.0084,0.0088,0.0098,0.0089,0.0099,0.0106,0.0103,0.0104,0.0062,0.0057,-0.0,-0.0041,-0.0067,-0.012,-0.015,-0.0168,-0.0197,-0.02,-0.0208,-0.0233,-0.0255,-0.026,-0.02,-0.02,-0.02,-0.0255,0,0.0122,0.0168,0.0157,0.0201,0.022,0.0189,0.0203,0.0192,0.0165,0.0152,0.0086,0.0061,-0.0,-0.0022,-0.0061,-0.0146,-0.0172,-0.015,-0.0261,-0.0264,-0.0275,-0.0263,-0.0237,-0.0285,-0.0258,-0.0258,-0.0259,0,0.017,0.0195,0.0246,0.0275,0.0279,0.0295,0.0303,0.0312,0.0282,0.0256,0.0216,0.0162,0.0109,0.005,-0.0062,-0.0048,-0.0126,-0.0192,-0.0197,-0.0241,-0.029,-0.0302,-0.0291,-0.0263,-0.0263,-0.0262,-0.0262,0,0.0214,0.0258,0.0303,0.031,0.0332,0.0345,0.0354,0.0341,0.0358,0.0319,0.0318,0.0241,0.0201,0.0097,-0.004,-0.0052,-0.0167,-0.0203,-0.0291,-0.0294,-0.0305,-0.0309,-0.027,-0.0269,-0.0269,-0.0269,-0.0269,0,0.0267,0.0302,0.0325,0.0345,0.0401,0.0393,0.044,0.0429,0.0431,0.0459,0.0375,0.0374,0.021,0.0123,-0.0006,-0.0153,-0.0141,-0.0274,-0.0307,-0.028,-0.0281,-0.0291,-0.0292,-0.0271,-0.0271,-0.027,-0.027,0,0.0308,0.0323,0.0376,0.0408,0.0421,0.0457,0.0503,0.0536,0.0523,0.0554,0.0548,0.0471,0.0355,0.0192,0.0016,-0.0104,-0.0247,-0.03,-0.0254,-0.0281,-0.0359,-0.0357,-0.0398,-0.04,-0.0401,-0.0401,-0.0402,0,0.0334,0.0364,0.0419,0.0453,0.0468,0.052,0.0561,0.0575,0.0617,0.062,0.0644,0.0548,0.0499,0.0235,-0.0001,-0.0221,-0.0252,-0.0344,-0.0364,-0.0343,-0.0371,-0.0367,-0.0363,-0.0352,-0.0352,-0.0352,-0.0352,0,0.038,0.0395,0.0437,0.051,0.0558,0.0629,0.0687,0.074,0.0763,0.0792,0.0816,0.078,0.0526,0.0308,-0.0006,-0.0161,-0.031,-0.0355,-0.0344,-0.0323,-0.0304,-0.033,-0.0327,-0.0354,-0.0354,-0.0354,-0.0354,-0.0354,0.0408,0.0448,0.0501,0.0574,0.0638,0.0731,0.0808,0.0874,0.096,0.1016,0.0961,0.092,0.0649,0.0265,-0.0022,-0.0326,-0.0316,-0.0412,-0.0409,-0.0407,-0.0391,-0.0375,-0.0436,-0.0436,-0.0436,-0.0436,-0.0437,0,0.0447,0.049,0.056,0.0655,0.0743,0.0767,0.0891,0.0974,0.1091,0.1123,0.1141,0.0917,0.0647,0.0333,-0.0112,-0.0379,-0.0402,-0.0466,-0.0426,-0.0422,-0.042,-0.0404,-0.0452,-0.0453,-0.0454,-0.0454,0,0,0.0465,0.0539,0.0581,0.0728,0.0801,0.0939,0.1023,0.1135,0.1203,0.1261,0.1241,0.1152,0.0768,0.0454,0.0075,-0.0184,-0.0242,-0.0242,-0.0201,-0.0106,-0.01,-0.0362,-0.0331,0,0,0,0,0]}],[{"header":{"parameterUnit":"m.s-1","parameterCategory":2,"la1":30.2991,"la2":30.254,"lo1":-89.0895,"lo2":-89.0444,"dx":0.0017,"dy":0.0017,"nx":28,"ny":28,"refTime":"2022-12-15T09:00:00:Z","depth":"4","parameterNumber":2,"parameterNumberName":"U-component_of_CURRENTS"},"data":[0,0,0,0,0,0,0,0,0,0,0,0,0,0,0,0,0,0,0,0,0,0,0,0,0,0,0,0,0,0,0,0,0,0,0,0,0,0,0,0,0,0,0,0,0,0,0,0,0,0,0,0,0,0,0,0,0,0,0.0861,0.086,0,0.0934,0.0937,0.0939,0.0883,0.0879,0.0874,0.087,0.1009,0.1017,0.1025,0,0,0,0,0,0,0,0,0,0,0,0,0,0.0881,0.0881,0.0861,0.086,0.0859,0.0933,0.0937,0.094,0.0884,0.0878,0.0873,0.0867,0.1007,0.1016,0.1026,0,0,0,0,0,0,0,0,0,0,0,0,0,0.0927,0.0882,0.0862,0.0822,0.0818,0.0933,0.0937,0.0941,0.0885,0.0878,0.0871,0.0865,0.1004,0.1015,0.1027,0.124,0,0,0.1064,0.1069,0,0,0,0,0,0,0,0,0.0924,0.0929,0.0829,0.0825,0.082,0.0871,0.0993,0.1036,0.0887,0.0885,0.0869,0.0861,0.0959,0.0974,0.1036,0.1246,0.1252,0.1065,0.1072,0.1077,0.1081,0,0,0,0,0,0,0,0.0921,0.0927,0.0914,0.0828,0.0822,0.0869,0.087,0.1004,0.098,0.0885,0.0875,0.0847,0.0959,0.1025,0.1039,0.1254,0.1065,0.1075,0.1083,0.1087,0.1383,0.1384,0,0,0,0,0,0,0.0861,0.0923,0.0911,0.0914,0.0829,0.0872,0.0873,0.0881,0.0976,0.0977,0.0853,0.0843,0.1008,0.1025,0.1043,0.1149,0.1077,0.1089,0.1095,0.1383,0.1383,0.1384,0,0,0,0,0,0,0.0862,0.0862,0.0908,0.0899,0.0904,0.0875,0.0888,0.0886,0.0963,0.0947,0.0952,0.0927,0.1003,0.1027,0.1121,0.1158,0.1094,0.1105,0.1382,0.1383,0.1384,0.1456,0,0,0,0,0,0,0.0864,0.0863,0.0883,0.0896,0.0902,0.0971,0.0891,0.0891,0.0943,0.0934,0.1015,0.1018,0.1,0.1102,0.1132,0.1173,0.1114,0.1381,0.1382,0.1383,0.1453,0.146,0.1465,0,0,0,0,0,0.0865,0.0887,0.0885,0.0883,0.092,0.0971,0.0986,0.0955,0.0954,0.1005,0.1019,0.1016,0.1127,0.1116,0.115,0.1195,0.138,0.1382,0.1383,0.145,0.1458,0.1465,0,0,0,0,0,0,0.0889,0.0882,0.088,0.0895,0.093,0.0951,0.0981,0.1009,0.1082,0.1062,0.1082,0.1089,0.117,0.1189,0.1175,0.127,0.1237,0.1245,0.1275,0.1284,0.129,0.128,0.1124,0,0,0,0,0,0.091,0.0942,0.094,0.0967,0.0978,0.1018,0.1047,0.1037,0.1073,0.1101,0.1148,0.1176,0.1217,0.125,0.1291,0.1413,0.1413,0.144,0.1446,0.1452,0.1461,0.1489,0.1499,0.1389,0.1389,0.1389,0,0,0.0914,0.0926,0.0935,0.0979,0.1006,0.1036,0.1025,0.1065,0.1097,0.1113,0.1201,0.1233,0.1253,0.1318,0.1356,0.1336,0.1483,0.1453,0.1458,0.1464,0.1492,0.1503,0.1512,0.139,0.139,0.1389,0,0,0.0937,0.0968,0.0993,0.1031,0.1056,0.1079,0.1105,0.1156,0.1181,0.1278,0.1255,0.1308,0.1418,0.1407,0.1422,0.1514,0.1518,0.1524,0.1564,0.1592,0.1601,0.161,0.1626,0.1636,0.1522,0.1522,0.1522,0,0.0943,0.098,0.1014,0.1048,0.1068,0.1105,0.1138,0.119,0.1266,0.1304,0.1283,0.1416,0.1445,0.1509,0.1501,0.1533,0.1544,0.154,0.1602,0.161,0.1618,0.1633,0.1642,0.1526,0.1526,0.1525,0.1525,0,0.0967,0.1012,0.1035,0.1088,0.1132,0.1174,0.1203,0.1273,0.1318,0.1355,0.1449,0.1488,0.1551,0.1565,0.157,0.1642,0.1632,0.1613,0.1589,0.1634,0.1646,0.1655,0.1531,0.153,0.1529,0.1528,0,0,0.0956,0.1033,0.1052,0.1083,0.1157,0.1191,0.1257,0.1331,0.1384,0.1452,0.1532,0.1597,0.1632,0.1649,0.1671,0.1696,0.1765,0.1687,0.1686,0.1712,0.183,0.1733,0.1733,0.1765,0.1767,0.1769,0.1817,0,0.0977,0.1039,0.1083,0.1156,0.1185,0.1246,0.1313,0.1379,0.1446,0.1534,0.1576,0.1658,0.1657,0.1704,0.1733,0.1765,0.1791,0.1753,0.1773,0.1774,0.169,0.1741,0.1775,0.1824,0.1826,0.1827,0.1828,0,0.0987,0.1036,0.1101,0.1191,0.1212,0.1267,0.1381,0.1444,0.155,0.1603,0.1683,0.1726,0.1805,0.1783,0.1857,0.1838,0.1847,0.1851,0.1852,0.1743,0.1693,0.1766,0.1844,0.1842,0.1841,0.184,0.1839,0,0.0962,0.1053,0.1112,0.1143,0.1241,0.13,0.1367,0.1475,0.1544,0.1663,0.1723,0.1806,0.1868,0.1892,0.1922,0.1902,0.198,0.1943,0.1859,0.1852,0.1893,0.1883,0.1985,0.1985,0.1985,0.1985,0.1984,0,0.0964,0.1018,0.111,0.1144,0.1229,0.1299,0.1407,0.1484,0.1602,0.1679,0.1769,0.183,0.1903,0.1955,0.1954,0.1941,0.2008,0.1879,0.1863,0.192,0.1913,0.1899,0.1888,0.1986,0.1986,0.1986,0.1985,0,0.0933,0.0995,0.1066,0.1179,0.1219,0.1286,0.1428,0.149,0.1614,0.1717,0.1762,0.1879,0.1941,0.1991,0.2037,0.1978,0.1971,0.1947,0.2021,0.2006,0.1814,0.1806,0.1848,0.1845,0.1843,0.1841,0.1839,0,0.092,0.095,0.108,0.1123,0.1187,0.129,0.1353,0.1488,0.155,0.1723,0.1754,0.1875,0.1934,0.1923,0.1976,0.1974,0.1948,0.1928,0.1855,0.1822,0.1803,0.1799,0.1795,0.1835,0.1834,0.1834,0.1833,0,0.0887,0.0946,0.1003,0.1092,0.1169,0.1246,0.1347,0.1387,0.1531,0.1653,0.1714,0.1755,0.1827,0.1855,0.1883,0.187,0.1929,0.1901,0.1905,0.1836,0.1807,0.1789,0.1788,0.1825,0.1826,0.1827,0.1827,0,0.0863,0.0893,0.0966,0.1042,0.1125,0.1171,0.1242,0.1308,0.1389,0.1569,0.1582,0.1701,0.1808,0.1802,0.1819,0.1815,0.1774,0.1696,0.1709,0.1719,0.1655,0.1597,0.1548,0,0,0,0,0,0.083,0.0844,0.0901,0.0975,0.1052,0.1103,0.1212,0.1279,0.1417,0.1422,0.1502,0.1558,0.1605,0.1662,0.1631,0.1756,0.1777,0.171,0.1692,0.1778,0.1787,0.1723,0,0,0,0,0,0,0.0798,0.0842,0.0869,0.0895,0.0931,0.1004,0.1071,0.1167,0.1179,0.1322,0.1355,0.1462,0.1528,0.1608,0.16,0.1618,0.1573,0.1787,0.1783,0.1772,0.1781,0.1789,0.1726,0,0,0,0,0]},{"header":{"parameterUnit":"m.s-1","parameterCategory":2,"la1":30.2991,"la2":30.254,"lo1":-89.0895,"lo2":-89.0444,"dx":0.0017,"dy":0.0017,"nx":28,"ny":28,"refTime":"2022-12-15T09:00:00:Z","depth":"4","parameterNumber":3,"parameterNumberName":"V-component_of_CURRENTS"},"data":[0,0,0,0,0,0,0,0,0,0,0,0,0,0,0,0,0,0,0,0,0,0,0,0,0,0,0,0,0,0,0,0,0,0,0,0,0,0,0,0,0,0,0,0,0,0,0,0,0,0,0,0,0,0,0,0,0,0,0.0335,0.0335,0,0.0324,0.0324,0.0323,0.0338,0.0339,0.034,0.0341,0.0266,0.0263,0.026,0,0,0,0,0,0,0,0,0,0,0,0,0,0.0309,0.0309,0.0335,0.0335,0.0336,0.0324,0.0324,0.0323,0.0338,0.0339,0.0341,0.0342,0.0267,0.0263,0.026,0,0,0,0,0,0,0,0,0,0,0,0,0,0.0305,0.0309,0.0335,0.0347,0.0349,0.0325,0.0324,0.0323,0.0337,0.0339,0.0341,0.0343,0.0268,0.0264,0.0259,0.0195,0,0,0.0245,0.0243,0,0,0,0,0,0,0,0,0.0305,0.0305,0.0345,0.0347,0.0348,0.0341,0.0287,0.0279,0.0337,0.0334,0.0341,0.0344,0.0288,0.0282,0.0267,0.0191,0.0188,0.0244,0.0242,0.024,0.0238,0,0,0,0,0,0,0,0.0305,0.0305,0.0323,0.0346,0.0348,0.0334,0.0335,0.0285,0.0294,0.0334,0.0337,0.0347,0.0288,0.0271,0.0265,0.0187,0.0245,0.024,0.0238,0.0236,0.011,0.011,0,0,0,0,0,0,0.0322,0.0305,0.0324,0.0324,0.0339,0.0334,0.0334,0.0335,0.0297,0.0295,0.0346,0.0348,0.0278,0.0271,0.0262,0.0234,0.024,0.0235,0.0233,0.0111,0.011,0.011,0,0,0,0,0,0,0.0321,0.0323,0.0324,0.0321,0.0321,0.0333,0.0333,0.0334,0.033,0.0307,0.0303,0.0344,0.0279,0.0269,0.0231,0.023,0.0233,0.0229,0.0111,0.0111,0.011,0.0145,0,0,0,0,0,0,0.032,0.0323,0.0319,0.0322,0.0322,0.0324,0.0333,0.0333,0.0337,0.0339,0.0303,0.0298,0.028,0.0238,0.0226,0.0223,0.0225,0.0112,0.0111,0.011,0.0145,0.0146,0.0147,0,0,0,0,0,0.0319,0.0326,0.0318,0.032,0.0319,0.0324,0.0322,0.0332,0.0335,0.0333,0.0309,0.03,0.0224,0.0233,0.0219,0.0216,0.0113,0.0111,0.011,0.0144,0.0146,0.0147,0,0,0,0,0,0,0.0318,0.0328,0.032,0.0329,0.0329,0.033,0.0331,0.0331,0.0307,0.0311,0.0282,0.0273,0.0243,0.0216,0.0227,0.0177,0.017,0.0166,0.02,0.0201,0.0202,0.021,0.0221,0,0,0,0,0,0.0312,0.0317,0.032,0.0326,0.0324,0.032,0.032,0.0329,0.0317,0.031,0.0279,0.0248,0.0221,0.0204,0.0171,0.013,0.0103,0.0121,0.0122,0.0124,0.012,0.0073,0.007,0.0106,0.0106,0.0106,0,0,0.0319,0.0321,0.0327,0.0325,0.032,0.0321,0.0323,0.0333,0.0333,0.0301,0.0273,0.0244,0.0211,0.018,0.0163,0.0161,0.01,0.0122,0.0123,0.0119,0.0072,0.0068,0.0065,0.0105,0.0105,0.0105,0,0,0.0333,0.0327,0.0332,0.0328,0.0331,0.0329,0.0333,0.0325,0.0321,0.0291,0.0275,0.0244,0.019,0.017,0.0155,0.0132,0.0107,0.0127,0.0136,0.0091,0.0088,0.0084,0.0055,0.0049,0.0128,0.0128,0.0128,0,0.0332,0.0342,0.0335,0.0332,0.0339,0.0333,0.0341,0.0328,0.0308,0.0296,0.0291,0.0215,0.0186,0.0156,0.0157,0.0135,0.0111,0.0139,0.0093,0.0089,0.0085,0.0056,0.0048,0.013,0.0129,0.0129,0.0129,0,0.0347,0.0351,0.0356,0.0348,0.0348,0.036,0.035,0.0336,0.0325,0.0309,0.027,0.0224,0.0185,0.0172,0.0158,0.0121,0.0114,0.0101,0.0094,0.0084,0.0053,0.0045,0.0132,0.0131,0.0131,0.013,0,0,0.0354,0.0364,0.0365,0.0369,0.0363,0.037,0.036,0.0352,0.035,0.0306,0.0289,0.0235,0.021,0.0189,0.0163,0.0123,0.0079,0.0105,0.0102,0.0084,-0.001,-0.0006,-0.0015,0.0061,0.0059,0.0058,-0.0017,0,0.0365,0.0381,0.038,0.0395,0.0402,0.0393,0.0388,0.0376,0.0356,0.0329,0.0281,0.0252,0.0219,0.0206,0.0158,0.0101,0.0058,0.0101,-0.0005,-0.0008,0.0003,-0.0024,0.0053,-0.0023,-0.0025,-0.0026,-0.0027,0,0.0374,0.0387,0.041,0.0426,0.0427,0.0432,0.043,0.0427,0.039,0.0372,0.0327,0.0289,0.0228,0.0203,0.0087,0.0118,0.0054,0.0005,0.0001,-0.0015,-0.002,-0.0015,-0.0042,-0.0041,-0.004,-0.0039,-0.0038,0,0.0389,0.0408,0.0434,0.0437,0.0448,0.0454,0.046,0.0439,0.0445,0.0401,0.0395,0.0309,0.0278,0.0178,0.0078,0.008,-0.005,-0.0059,-0.012,-0.0119,-0.0114,-0.011,-0.0152,-0.0152,-0.0152,-0.0152,-0.0152,0,0.0402,0.0423,0.0446,0.0457,0.0489,0.0483,0.0508,0.0495,0.0486,0.0494,0.0423,0.0405,0.027,0.0184,0.0082,-0.004,-0.0051,-0.0127,-0.0145,-0.0096,-0.0089,-0.0119,-0.0114,-0.0155,-0.0154,-0.0153,-0.0153,0,0.0416,0.0431,0.0461,0.0485,0.0498,0.052,0.0557,0.0573,0.0557,0.0566,0.0557,0.0474,0.0361,0.0225,0.0064,-0.0021,-0.0145,-0.0187,-0.0115,-0.0126,-0.0185,-0.0178,-0.0265,-0.0266,-0.0266,-0.0267,-0.0267,0,0.0424,0.0442,0.0487,0.0514,0.053,0.0569,0.06,0.0608,0.0629,0.0609,0.0615,0.0517,0.0445,0.0226,0.0073,-0.013,-0.0159,-0.0223,-0.0221,-0.0191,-0.02,-0.0192,-0.0184,-0.0268,-0.0268,-0.0268,-0.0268,0,0.044,0.0459,0.049,0.0548,0.0589,0.064,0.0683,0.0705,0.0714,0.0703,0.0662,0.0546,0.0417,0.0237,0.0078,-0.0068,-0.0184,-0.023,-0.023,-0.0228,-0.0196,-0.0202,-0.0194,-0.027,-0.027,-0.027,-0.027,0,0.0455,0.0482,0.0527,0.0577,0.0638,0.0694,0.0714,0.0739,0.0758,0.0734,0.0718,0.0575,0.0488,0.0269,0.0123,-0.0023,-0.0063,-0.0111,-0.0118,-0.0118,-0.0057,0.0007,-0.0028,0,0,0,0,0,0.0466,0.0502,0.0552,0.0612,0.0675,0.0712,0.0765,0.0779,0.0788,0.077,0.0746,0.0627,0.0406,0.0308,0.0163,0.0102,-0.0095,-0.0074,-0.0154,-0.0281,-0.0278,-0.0232,0,0,0,0,0,0,0.0475,0.0528,0.0555,0.0636,0.0682,0.0756,0.0793,0.0799,0.0786,0.0769,0.0656,0.0592,0.0378,0.0494,0.0163,0.0117,0.0045,-0.0179,-0.0182,-0.0282,-0.028,-0.0278,-0.023,0,0,0,0,0]}]]